EOS-6 (OCEANSAT-3)

Last updated on Thu Aug 20 2026 00:02:52 GMT+0000 (Coordinated Universal Time)

1 54361U 22158A 26231.64168966 .00000194 00000+0 65365-4 0 9999 2 54361 98.3550 328.9959 0002103 121.3382 238.8017 14.46999452197012
UTC large
Height (km)
Speed (km/s)
/
Latitude / Longitude
Inclination (degrees)
Orbital Period (minutes)
Azimuth
Elevation
Range (km)
Doppler Factor

Next 0 passes for location: London (51.5072 / 0.1276)

No passes found over London.
EOS-6 (OCEANSAT-3)